period_start,C,m1,H,J0,J1,J2,J3,J4,J5,JA,JB,JC,JD,JJ,JK,JN,#
2018-10-14 00:01:36,0.00,0.00,0.00,23.07,27.35,29.34,-0.05,0.50,1029.81,2025.24,3690.86,3068.39,3530.05,0.00,0.00,0.00,0000 0000 0000 A000 020008
2018-10-14 00:06:37,0.00,0.00,0.00,23.09,27.36,29.39,-0.04,0.51,1029.80,2025.33,3690.86,3068.33,3530.01,0.00,0.00,0.00,0000 0000 0000 A000 020008
2018-10-14 00:11:38,0.00,0.00,0.00,23.11,27.37,29.40,-0.04,0.50,1029.80,2025.23,3690.65,3068.25,3530.00,0.00,0.00,0.00,0000 0000 0000 A000 020008
2018-10-14 00:16:39,0.00,0.00,0.00,23.13,27.37,29.44,-0.05,0.50,1029.81,2025.08,3690.26,3068.04,3530.00,0.00,0.00,0.00,0000 0000 0000 A000 020008
2018-10-14 00:21:40,0.00,0.00,0.00,23.15,27.37,29.47,-0.05,0.50,1029.80,2025.04,3690.10,3068.01,3530.00,0.00,0.00,0.00,0000 0000 0000 A000 020008
2018-10-14 00:26:41,0.00,0.00,0.00,23.17,27.38,29.48,-0.05,0.51,1029.80,2025.05,3690.14,3068.03,3530.00,0.00,0.00,0.00,0000 0000 0000 A000 020008
2018-10-14 00:31:42,0.00,0.00,0.00,23.17,27.40,29.47,-0.05,0.50,1029.80,2025.05,3690.07,3068.01,3530.00,0.00,0.00,0.00,0000 0000 0000 A000 020008
2018-10-14 00:36:43,0.00,0.00,0.00,23.17,27.40,29.50,-0.05,0.50,1029.80,2025.04,3690.07,3068.01,3530.00,0.00,0.00,0.00,0000 0000 0000 A000 020008
2018-10-14 00:41:44,0.00,0.00,0.00,23.19,27.40,29.47,-0.05,0.50,1029.80,2025.02,3690.01,3068.00,3529.99,0.00,0.00,0.00,0000 0000 0000 A000 020008
2018-10-14 00:46:46,0.00,0.00,0.00,23.19,27.42,29.50,-0.05,0.51,1029.80,2025.00,3690.00,3068.00,3529.98,0.00,0.00,0.00,0000 0000 0000 A000 020008
2018-10-14 00:51:47,0.00,0.00,0.00,23.20,27.42,29.53,-0.04,0.50,1029.80,2025.00,3690.00,3068.00,3529.98,0.00,0.00,0.00,0000 0000 0000 A000 020008
2018-10-14 00:56:48,0.00,0.00,0.00,23.22,27.42,29.53,-0.04,0.50,1029.80,2025.00,3690.00,3068.00,3529.95,0.00,0.00,0.00,0000 0000 0000 A000 020008
2018-10-14 01:01:49,0.00,0.00,0.00,23.24,27.44,29.56,-0.05,0.50,1029.80,2025.00,3690.00,3068.00,3529.76,0.00,0.00,0.00,0000 0000 0000 A000 020008
2018-10-14 01:06:51,0.00,0.00,0.00,23.25,27.45,29.58,-0.04,0.50,1029.79,2025.00,3690.00,3067.99,3529.59,0.00,0.00,0.00,0000 0000 0000 A000 020008
2018-10-14 01:11:52,0.00,0.00,0.00,23.27,27.46,29.60,-0.04,0.50,1029.77,2025.00,3689.99,3067.99,3529.66,0.00,0.00,0.00,0000 0000 0000 A000 020008
2018-10-14 01:16:54,0.00,0.00,0.00,23.28,27.47,29.57,-0.04,0.51,1029.78,2025.00,3689.99,3067.98,3529.55,0.00,0.00,0.00,0000 0000 0000 A000 020008
2018-10-14 01:21:55,0.00,0.00,0.00,23.30,27.47,29.59,-0.04,0.51,1029.79,2025.00,3689.99,3067.97,3529.25,0.00,0.00,0.00,0000 0000 0000 A000 020008
2018-10-14 01:26:56,0.00,0.00,0.00,23.32,27.49,29.63,-0.05,0.51,1029.79,2025.00,3689.95,3067.95,3529.03,0.00,0.00,0.00,0000 0000 0000 A000 020008
2018-10-14 01:31:57,0.00,0.00,0.00,23.34,27.50,29.63,-0.05,0.52,1029.80,2025.00,3689.93,3067.88,3529.03,0.00,0.00,0.00,0000 0000 0000 A000 020008
2018-10-14 01:36:58,0.00,0.00,0.00,23.35,27.51,29.67,-0.04,0.52,1029.80,2025.00,3689.71,3067.60,3529.00,0.00,0.00,0.00,0000 0000 0000 A000 020008
2018-10-14 01:41:59,0.00,0.00,0.00,23.36,27.52,29.69,-0.04,0.54,1029.80,2024.99,3689.43,3067.33,3529.00,0.00,0.00,0.00,0000 0000 0000 A000 020008
2018-10-14 01:47:00,0.00,0.00,0.00,23.37,27.53,29.72,-0.05,0.50,1029.80,2024.98,3689.23,3067.15,3529.00,0.00,0.00,0.00,0000 0000 0000 A000 020008
2018-10-14 01:52:01,0.00,0.00,0.00,23.39,27.55,29.71,-0.05,0.52,1029.80,2024.97,3689.05,3067.06,3529.00,0.00,0.00,0.00,0000 0000 0000 A000 020008
2018-10-14 01:57:02,0.00,0.00,0.00,23.41,27.55,29.72,-0.04,0.52,1029.80,2024.96,3689.03,3067.03,3528.99,0.00,0.00,0.00,0000 0000 0000 A000 020008
2018-10-14 02:02:04,0.00,0.00,0.00,23.43,27.57,29.74,-0.05,0.51,1029.80,2024.96,3689.02,3067.00,3528.97,0.00,0.00,0.00,0000 0000 0000 A000 020008
2018-10-14 02:07:05,0.00,0.00,0.00,23.45,27.57,29.77,-0.04,0.50,1029.80,2024.79,3689.00,3067.00,3528.85,0.00,0.00,0.00,0000 0000 0000 A000 020008
2018-10-14 02:12:06,0.00,0.00,0.00,23.46,27.60,29.78,-0.04,0.52,1029.80,2024.75,3689.00,3067.00,3528.80,0.00,0.00,0.00,0000 0000 0000 A000 020008
2018-10-14 02:17:08,0.00,0.00,0.00,23.47,27.60,29.79,-0.04,0.50,1029.80,2024.77,3689.00,3067.00,3528.68,0.00,0.00,0.00,0000 0000 0000 A000 020008
2018-10-14 02:22:09,0.00,0.00,0.00,23.47,27.62,29.82,-0.04,0.50,1029.80,2024.65,3688.99,3066.99,3528.29,0.00,0.00,0.00,0000 0000 0000 A000 020008
2018-10-14 02:27:10,0.00,0.00,0.00,23.50,27.62,29.82,-0.05,0.50,1029.80,2024.40,3688.99,3066.98,3528.11,0.00,0.00,0.00,0000 0000 0000 A000 020008
2018-10-14 02:32:11,0.00,0.00,0.00,23.52,27.65,29.86,-0.04,0.50,1029.80,2024.22,3688.97,3066.96,3528.03,0.00,0.00,0.00,0000 0000 0000 A000 020008
2018-10-14 02:37:13,0.00,0.00,0.00,23.56,27.65,29.87,-0.05,0.50,1029.80,2024.07,3688.87,3066.86,3528.00,0.00,0.00,0.00,0000 0000 0000 A000 020008
2018-10-14 02:42:14,0.00,0.00,0.00,23.59,27.67,29.91,-0.05,0.50,1029.80,2024.04,3688.76,3066.68,3528.00,0.00,0.00,0.00,0000 0000 0000 A000 020008
2018-10-14 02:47:15,0.00,0.00,0.00,23.61,27.69,29.91,-0.04,0.50,1029.80,2024.01,3688.23,3066.20,3527.99,0.00,0.00,0.00,0000 0000 0000 A000 020008
2018-10-14 02:52:17,0.00,0.00,0.00,23.64,27.70,29.92,-0.04,0.50,1029.80,2024.00,3688.05,3066.04,3527.98,0.00,0.00,0.00,0000 0000 0000 A000 020008
2018-10-14 02:57:17,0.00,0.00,0.00,23.67,27.72,29.92,-0.04,0.50,1029.80,2024.00,3688.01,3066.02,3527.87,0.00,0.00,0.00,0000 0000 0000 A000 020008
2018-10-14 03:02:18,0.00,0.00,0.00,23.69,27.73,29.98,-0.05,0.50,1029.78,2024.00,3688.00,3066.00,3527.36,0.00,0.00,0.00,0000 0000 0000 A000 020008
2018-10-14 03:07:20,0.00,0.00,0.00,23.72,27.75,29.99,-0.05,0.50,1029.78,2024.00,3688.00,3065.99,3527.12,0.00,0.00,0.00,0000 0000 0000 A000 020008
2018-10-14 03:12:21,0.00,0.00,0.00,23.75,27.77,29.98,-0.04,0.50,1029.79,2024.00,3687.98,3065.98,3527.03,0.00,0.00,0.00,0000 0000 0000 A000 020008
2018-10-14 03:17:22,0.00,0.00,0.00,23.77,27.79,30.03,-0.04,0.50,1029.79,2023.99,3687.95,3065.97,3527.00,0.00,0.00,0.00,0000 0000 0000 A000 020008
2018-10-14 03:22:23,0.00,0.00,0.00,23.80,27.81,30.07,-0.05,0.50,1029.80,2023.98,3687.91,3065.95,3527.00,0.00,0.00,0.00,0000 0000 0000 A000 020008
2018-10-14 03:27:24,0.00,0.00,0.00,23.83,27.82,30.09,-0.04,0.50,1029.76,2023.98,3687.54,3065.69,3526.99,0.00,0.00,0.00,0000 0000 0000 A000 020008
2018-10-14 03:32:25,0.00,0.00,0.00,23.86,27.85,30.12,-0.04,0.50,1029.67,2023.86,3687.16,3065.21,3526.97,0.00,0.00,0.00,0000 0000 0000 A000 020008
2018-10-14 03:37:26,0.00,0.00,0.00,23.90,27.87,30.14,-0.04,0.50,1029.44,2023.44,3687.00,3065.01,3526.45,0.00,0.00,0.00,0000 0000 0000 A000 020008
2018-10-14 03:42:28,0.00,0.00,0.00,23.94,27.89,30.15,-0.04,0.50,1029.44,2023.20,3687.00,3065.00,3526.14,0.00,0.00,0.00,0000 0000 0000 A000 020008
2018-10-14 03:47:29,0.00,0.00,0.00,23.98,27.91,30.20,-0.04,0.50,1029.44,2023.07,3687.00,3065.00,3526.02,0.00,0.00,0.00,0000 0000 0000 A000 020008
2018-10-14 03:52:30,0.00,0.00,0.00,24.01,27.93,30.24,-0.03,0.50,1029.48,2023.02,3686.96,3064.99,3526.00,0.00,0.00,0.00,0000 0000 0000 A000 020008
2018-10-14 03:57:32,0.00,0.00,0.00,24.06,27.96,30.27,-0.04,0.50,1029.57,2023.00,3686.77,3064.94,3526.00,0.00,0.00,0.00,0000 0000 0000 A000 020008
2018-10-14 04:02:33,0.00,0.00,0.00,24.10,27.98,30.33,-0.04,0.50,1029.50,2023.00,3686.20,3064.59,3525.98,0.00,0.00,0.00,0000 0000 0000 A000 020008
2018-10-14 04:07:34,0.00,0.00,0.00,24.14,28.01,30.35,-0.04,0.49,1029.48,2023.00,3686.04,3064.13,3525.75,0.00,0.00,0.00,0000 0000 0000 A000 020008
2018-10-14 04:12:36,0.00,0.00,0.00,24.17,28.04,30.40,-0.04,0.49,1029.39,2023.00,3686.00,3064.01,3525.14,0.00,0.00,0.00,0000 0000 0000 A000 020008
2018-10-14 04:17:37,0.00,0.00,0.00,24.21,28.06,30.44,-0.04,0.50,1029.47,2022.96,3685.99,3064.00,3525.00,0.00,0.00,0.00,0000 0000 0000 A000 020008
2018-10-14 04:22:38,0.00,0.00,0.00,24.24,28.09,30.46,-0.03,0.50,1029.37,2022.66,3685.71,3063.98,3525.00,0.00,0.00,0.00,0000 0000 0000 A000 020008
2018-10-14 04:27:40,0.00,0.00,0.00,24.27,28.12,30.51,-0.03,0.48,1029.33,2022.14,3685.09,3063.76,3524.79,0.00,0.00,0.00,0000 0000 0000 A000 020008
2018-10-14 04:32:41,0.00,0.00,0.00,24.29,28.15,30.52,-0.03,0.46,1029.33,2022.06,3685.01,3063.19,3524.23,0.00,0.00,0.00,0000 0000 0000 A000 020008
2018-10-14 04:37:42,0.00,0.00,0.00,24.30,28.17,30.56,-0.03,0.48,1029.33,2022.00,3684.99,3063.01,3524.01,0.00,0.00,0.00,0000 0000 0000 A000 020008
2018-10-14 04:42:43,0.00,0.00,0.00,24.32,28.20,30.55,-0.03,0.48,1029.33,2022.00,3684.98,3063.00,3524.00,0.00,0.00,0.00,0000 0000 0000 A000 020008
2018-10-14 04:47:44,0.00,0.00,0.00,24.34,28.22,30.61,-0.02,0.48,1029.34,2022.00,3684.90,3062.98,3523.99,0.00,0.00,0.00,0000 0000 0000 A000 020008
2018-10-14 04:52:45,0.00,0.00,0.00,24.35,28.25,30.64,-0.02,0.45,1029.34,2022.00,3684.50,3062.94,3523.88,0.00,0.00,0.00,0000 0000 0000 A000 020008
2018-10-14 04:57:46,0.00,0.00,0.00,24.37,28.28,30.67,-0.02,0.48,1029.34,2021.98,3684.04,3062.55,3523.23,0.00,0.00,0.00,0000 0000 0000 A000 020008
2018-10-14 05:02:47,0.00,0.00,0.00,24.38,28.31,30.68,-0.02,0.47,1029.33,2021.95,3684.00,3062.08,3523.01,0.00,0.00,0.00,0000 0000 0000 A000 020008
2018-10-14 05:07:49,0.00,0.00,0.00,24.40,28.33,30.68,-0.03,0.38,1029.33,2021.67,3683.99,3062.01,3523.00,0.00,0.00,0.00,0000 0000 0000 A000 020008
2018-10-14 05:12:50,0.00,0.00,0.00,24.41,28.36,30.69,-0.03,0.33,1029.33,2021.27,3683.89,3062.00,3522.97,0.00,0.00,0.00,0000 0000 0000 A000 020008
2018-10-14 05:17:52,0.00,0.00,0.00,24.42,28.38,30.72,-0.03,0.36,1029.35,2021.05,3683.39,3061.98,3522.80,0.00,0.00,0.00,0000 0000 0000 A000 020008
2018-10-14 05:22:53,0.00,0.00,0.00,24.43,28.41,30.74,-0.03,0.33,1029.34,2021.02,3683.06,3061.89,3522.24,0.00,0.00,0.00,0000 0000 0000 A000 020008
2018-10-14 05:27:54,0.00,0.00,0.00,24.45,28.43,30.74,-0.02,0.30,1029.37,2021.01,3683.00,3061.33,3522.02,0.00,0.00,0.00,0000 0000 0000 A000 020008
2018-10-14 05:32:56,0.00,0.00,0.00,24.45,28.46,30.73,-0.03,0.26,1029.35,2021.00,3683.00,3061.02,3522.00,0.00,0.00,0.00,0000 0000 0000 A000 020008
2018-10-14 05:37:57,0.00,0.00,0.00,24.46,28.48,30.78,-0.02,0.29,1029.33,2021.00,3682.98,3061.00,3521.98,0.00,0.00,0.00,0000 0000 0000 A000 020008
2018-10-14 05:42:58,0.00,0.00,0.00,24.47,28.50,30.79,-0.03,0.29,1029.36,2020.99,3682.74,3061.00,3521.83,0.00,0.00,0.00,0000 0000 0000 A000 020008
2018-10-14 05:48:00,0.00,0.00,0.00,24.47,28.52,30.79,-0.03,0.26,1029.41,2020.96,3682.22,3060.98,3521.24,0.00,0.00,0.00,0000 0000 0000 A000 020008
2018-10-14 05:53:01,0.00,0.00,0.00,24.47,28.55,30.82,-0.03,0.27,1029.39,2020.90,3682.03,3060.82,3521.01,0.00,0.00,0.00,0000 0000 0000 A000 020008
2018-10-14 05:58:02,0.00,0.00,0.00,24.47,28.57,30.80,-0.03,0.30,1029.62,2020.65,3682.00,3060.33,3521.00,0.00,0.00,0.00,0000 0000 0000 A000 020008
2018-10-14 06:03:03,0.00,0.00,0.00,24.47,28.59,30.85,-0.02,0.28,1029.50,2020.39,3682.00,3060.16,3521.00,0.00,0.00,0.00,0000 0000 0000 A000 020008
2018-10-14 06:08:04,0.00,0.00,0.00,24.47,28.61,30.87,-0.02,0.32,1029.37,2020.10,3681.99,3060.03,3521.00,0.00,0.00,0.00,0000 0000 0000 A000 020008
2018-10-14 06:13:05,0.00,0.00,0.00,24.47,28.62,30.86,-0.02,0.26,1029.41,2020.03,3681.94,3060.00,3520.90,0.00,0.00,0.00,0000 0000 0000 A000 020008
2018-10-14 06:18:07,0.00,0.00,0.00,24.47,28.64,30.83,-0.03,0.25,1029.57,2020.01,3681.49,3060.00,3520.33,0.00,0.00,0.00,0000 0000 0000 A000 020008
2018-10-14 06:23:08,0.00,0.00,0.00,24.47,28.65,30.84,-0.03,0.25,1029.55,2020.00,3681.22,3060.00,3520.14,0.00,0.00,0.00,0000 0000 0000 A000 020008
2018-10-14 06:28:09,0.00,0.00,0.00,24.48,28.67,30.88,-0.02,0.26,1029.35,2020.00,3681.08,3059.98,3520.05,0.00,0.00,0.00,0000 0000 0000 A000 020008
2018-10-14 06:33:10,0.00,0.00,0.00,24.47,28.68,30.86,-0.02,0.25,1029.36,2020.00,3681.03,3059.97,3520.02,0.00,0.00,0.00,0000 0000 0000 A000 020008
2018-10-14 06:38:12,0.00,0.00,0.00,24.47,28.70,30.88,-0.03,0.33,1029.33,2020.00,3681.01,3059.90,3520.00,0.00,0.00,0.00,0000 0000 0000 A000 020008
2018-10-14 06:43:13,0.00,0.00,0.00,24.47,28.71,30.86,-0.03,0.27,1029.33,2020.00,3681.00,3059.71,3520.00,0.00,0.00,0.00,0000 0000 0000 A000 020008
2018-10-14 06:48:14,0.00,0.00,0.00,24.45,28.72,30.87,-0.02,0.26,1029.33,2020.00,3681.00,3059.43,3520.00,0.00,0.00,0.00,0000 0000 0000 A000 020008
2018-10-14 06:53:16,0.00,0.00,0.00,24.45,28.72,30.88,-0.02,0.26,1029.33,2019.99,3681.00,3059.12,3520.00,0.00,0.00,0.00,0000 0000 0000 A000 020008
2018-10-14 06:58:17,0.00,0.00,0.00,24.43,28.74,30.87,-0.03,0.26,1029.32,2019.98,3681.00,3059.03,3519.99,0.00,0.00,0.00,0000 0000 0000 A000 020008
2018-10-14 07:03:19,0.00,0.00,0.00,24.42,28.75,30.87,-0.02,0.30,1029.31,2019.96,3680.98,3059.01,3519.94,0.00,0.00,0.00,0000 0000 0000 A000 020008
2018-10-14 07:08:20,0.00,0.00,0.00,24.40,28.75,30.89,-0.02,0.25,1029.31,2019.93,3680.92,3059.00,3519.81,0.00,0.00,0.00,0000 0000 0000 A000 020008
2018-10-14 07:13:21,0.00,0.00,0.00,24.40,28.76,30.87,-0.03,0.25,1029.31,2019.72,3680.61,3059.00,3519.45,0.00,0.00,0.00,0000 0000 0000 A000 020008
2018-10-14 07:18:22,0.00,0.00,0.00,24.39,28.77,30.81,-0.02,0.25,1029.31,2019.63,3680.31,3059.00,3519.16,0.00,0.00,0.00,0000 0000 0000 A000 020008
2018-10-14 07:23:23,0.00,0.00,0.00,24.37,28.77,30.84,-0.02,0.25,1029.31,2019.53,3680.24,3059.00,3519.12,0.00,0.00,0.00,0000 0000 0000 A000 020008
2018-10-14 07:28:25,0.00,0.00,0.00,24.37,28.77,30.80,-0.02,0.26,1029.31,2019.60,3680.39,3058.99,3519.16,0.00,0.00,0.00,0000 0000 0000 A000 020008
2018-10-14 07:33:26,0.00,0.00,0.00,24.37,28.77,30.76,-0.02,0.25,1029.14,2019.37,3680.13,3058.99,3519.05,0.00,0.00,0.00,0000 0000 0000 A000 020008
2018-10-14 07:38:27,0.00,0.00,0.00,24.36,28.78,30.78,-0.02,0.25,1028.89,2019.33,3680.08,3058.99,3519.05,0.00,0.00,0.00,0000 0000 0000 A000 020008
2018-10-14 07:43:28,0.00,0.00,0.00,24.35,28.78,30.81,-0.03,0.25,1028.99,2019.36,3680.11,3058.99,3519.04,0.00,0.00,0.00,0000 0000 0000 A000 020008
2018-10-14 07:48:29,0.00,0.00,0.00,24.32,28.78,30.78,-0.02,0.25,1028.92,2019.33,3680.11,3058.98,3519.06,0.00,0.00,0.00,0000 0000 0000 A000 020008
2018-10-14 07:53:31,0.00,0.00,0.00,24.31,28.78,30.79,-0.02,0.26,1028.85,2019.43,3680.20,3058.99,3519.07,0.00,0.00,0.00,0000 0000 0000 A000 020008
2018-10-14 07:58:32,0.00,0.00,0.00,24.29,28.78,30.78,-0.02,0.27,1028.85,2019.44,3680.23,3058.99,3519.06,0.00,0.00,0.00,0000 0000 0000 A000 020008
2018-10-14 08:03:32,0.00,0.00,0.00,24.27,28.77,30.74,-0.02,0.25,1028.85,2019.45,3680.17,3058.99,3519.04,0.00,0.00,0.00,0000 0000 0000 A000 020008
2018-10-14 08:08:33,0.00,0.00,0.00,24.26,28.77,30.69,-0.03,0.27,1028.85,2019.18,3680.03,3058.99,3519.01,0.00,0.00,0.00,0000 0000 0000 A000 020008
2018-10-14 08:13:35,0.00,0.00,0.00,24.24,28.77,30.69,-0.02,0.27,1028.84,2019.37,3680.17,3058.99,3519.06,0.00,0.00,0.00,0000 0000 0000 A000 020008
2018-10-14 08:18:36,0.00,0.00,0.00,24.22,28.77,30.73,-0.02,0.26,1028.83,2019.25,3680.12,3058.99,3519.03,0.00,0.00,0.00,0000 0000 0000 A000 020008
2018-10-14 08:23:37,0.00,0.00,0.00,24.22,28.77,30.69,-0.02,0.41,1028.83,2019.32,3680.20,3058.98,3519.05,0.00,0.00,0.00,0000 0000 0000 A000 020008
2018-10-14 08:28:38,0.00,0.00,0.00,24.20,28.77,30.69,-0.03,0.47,1028.71,2019.47,3680.40,3058.99,3519.16,0.00,0.00,0.00,0000 0000 0000 A000 020008
2018-10-14 08:33:39,0.00,0.00,0.00,24.18,28.75,30.72,-0.02,0.38,1028.64,2019.53,3680.50,3058.99,3519.19,0.00,0.00,0.00,0000 0000 0000 A000 020008
2018-10-14 08:38:40,0.00,0.00,0.00,24.16,28.75,30.72,-0.03,0.31,1028.61,2019.56,3680.68,3058.99,3519.37,0.00,0.00,0.00,0000 0000 0000 A000 020008
2018-10-14 08:43:42,0.00,0.00,0.00,24.14,28.75,30.57,-0.03,0.28,1028.38,2019.74,3680.88,3058.99,3519.57,0.00,0.00,0.00,0000 0000 0000 A000 020008
2018-10-14 08:48:43,0.00,0.00,0.00,24.12,28.74,30.65,-0.03,0.31,1028.34,2019.79,3680.87,3059.00,3519.67,0.00,0.00,0.00,0000 0000 0000 A000 020008
2018-10-14 08:53:44,0.00,0.00,0.00,24.11,28.72,30.69,-0.03,0.31,1028.34,2019.85,3680.93,3059.01,3519.77,0.00,0.00,0.00,0000 0000 0000 A000 020008
2018-10-14 08:58:45,0.00,0.00,0.00,24.09,28.72,30.67,-0.04,0.29,1028.34,2019.88,3680.96,3059.01,3519.89,0.00,0.00,0.00,0000 0000 0000 A000 020008
2018-10-14 09:03:46,0.00,0.00,0.00,24.07,28.72,30.58,-0.04,0.32,1028.35,2019.90,3680.98,3059.02,3519.96,0.00,0.00,0.00,0000 0000 0000 A000 020008
2018-10-14 09:08:48,0.00,0.00,0.00,24.06,28.70,30.55,-0.02,0.34,1028.34,2019.94,3680.98,3059.02,3519.97,0.00,0.00,0.00,0000 0000 0000 A000 020008
2018-10-14 09:13:49,0.00,0.00,0.00,24.05,28.70,30.52,-0.03,0.47,1028.35,2019.97,3680.99,3059.07,3519.98,0.00,0.00,0.00,0000 0000 0000 A000 020008
2018-10-14 09:18:50,0.00,0.00,0.00,24.03,28.69,30.43,-0.04,0.43,1028.34,2019.97,3680.99,3059.24,3519.99,0.00,0.00,0.00,0000 0000 0000 A000 020008
2018-10-14 09:23:51,0.00,0.00,0.00,24.02,28.67,30.48,-0.03,0.31,1028.31,2019.98,3680.99,3059.36,3519.99,0.00,0.00,0.00,0000 0000 0000 A000 020008
2018-10-14 09:28:52,0.00,0.00,0.00,24.00,28.67,30.44,-0.03,0.38,1028.07,2019.99,3680.99,3059.75,3519.99,0.00,0.00,0.00,0000 0000 0000 A000 020008
2018-10-14 09:33:53,0.00,0.00,0.00,24.00,28.66,30.47,-0.04,0.47,1027.87,2019.99,3681.01,3059.95,3519.99,0.00,0.00,0.00,0000 0000 0000 A000 020008
2018-10-14 09:38:55,0.00,0.00,0.00,23.97,28.65,30.40,-0.03,0.42,1027.85,2019.99,3681.01,3059.96,3520.00,0.00,0.00,0.00,0000 0000 0000 A000 020008
2018-10-14 09:43:56,0.00,0.00,0.00,23.97,28.64,30.48,-0.03,0.47,1027.85,2019.99,3681.06,3059.98,3520.01,0.00,0.00,0.00,0000 0000 0000 A000 020008
2018-10-14 09:48:57,0.00,0.00,0.00,23.97,28.62,30.49,-0.04,0.49,1027.82,2019.99,3681.24,3059.99,3520.05,0.00,0.00,0.00,0000 0000 0000 A000 020008
2018-10-14 09:53:58,0.00,0.00,0.00,23.95,28.62,30.44,-0.04,0.47,1027.65,2019.99,3681.51,3059.99,3520.14,0.00,0.00,0.00,0000 0000 0000 A000 020008
2018-10-14 09:59:00,0.00,0.00,0.00,23.92,28.60,30.46,-0.03,0.49,1027.38,2019.99,3681.67,3059.99,3520.26,0.00,0.00,0.00,0000 0000 0000 A000 020008
2018-10-14 10:04:01,0.00,0.00,0.00,23.90,28.60,30.40,-0.04,0.47,1027.36,2020.00,3681.93,3059.99,3520.71,0.00,0.00,0.00,0000 0000 0000 A000 020008
2018-10-14 10:09:02,0.00,0.00,0.00,23.88,28.57,30.41,-0.04,0.50,1027.34,2020.01,3681.98,3060.01,3520.93,0.00,0.00,0.00,0000 0000 0000 A000 020008
2018-10-14 10:14:03,0.00,0.00,0.00,23.85,28.56,30.34,-0.04,0.52,1027.28,2020.02,3681.99,3060.02,3520.98,0.00,0.00,0.00,0000 0000 0000 A000 020008
2018-10-14 10:19:04,0.00,0.00,0.00,23.81,28.55,30.32,-0.04,0.49,1027.15,2020.02,3681.99,3060.05,3520.98,0.00,0.00,0.00,0000 0000 0000 A000 020008
2018-10-14 10:24:06,0.00,0.00,0.00,23.78,28.53,30.27,-0.04,0.45,1027.11,2020.08,3681.99,3060.26,3520.99,0.00,0.00,0.00,0000 0000 0000 A000 020008
2018-10-14 10:29:07,0.00,0.00,0.00,23.75,28.52,30.26,-0.03,0.49,1026.91,2020.18,3682.00,3060.66,3520.99,0.00,0.00,0.00,0000 0000 0000 A000 020008
2018-10-14 10:34:08,0.00,0.00,0.00,23.72,28.50,30.23,-0.03,0.50,1026.89,2020.43,3682.03,3060.95,3521.01,0.00,0.00,0.00,0000 0000 0000 A000 020008
2018-10-14 10:39:09,0.00,0.00,0.00,23.70,28.48,30.20,-0.04,0.50,1026.88,2020.78,3682.34,3060.98,3521.14,0.00,0.00,0.00,0000 0000 0000 A000 020008
2018-10-14 10:44:10,0.00,0.00,0.00,23.67,28.47,30.15,-0.04,0.51,1026.87,2020.90,3682.53,3060.98,3521.36,0.00,0.00,0.00,0000 0000 0000 A000 020008
2018-10-14 10:49:11,0.00,0.00,0.00,23.67,28.45,30.10,-0.05,0.62,1026.85,2020.97,3682.91,3060.99,3521.84,0.00,0.00,0.00,0000 0000 0000 A000 020008
2018-10-14 10:54:12,0.00,0.00,0.00,23.66,28.43,30.07,-0.05,0.54,1026.53,2020.96,3682.98,3061.00,3521.96,0.00,0.00,0.00,0000 0000 0000 A000 020008
2018-10-14 10:59:13,0.00,0.00,0.00,23.65,28.41,30.09,-0.04,0.55,1026.39,2020.99,3682.99,3061.03,3521.98,0.00,0.00,0.00,0000 0000 0000 A000 020008
2018-10-14 11:04:14,0.00,0.00,0.00,23.63,28.40,30.06,-0.04,0.57,1026.38,2020.99,3682.99,3061.07,3521.99,0.00,0.00,0.00,0000 0000 0000 A000 020008
2018-10-14 11:09:15,0.00,0.00,0.00,23.61,28.37,30.07,-0.04,0.57,1026.34,2020.99,3682.99,3061.27,3522.00,0.00,0.00,0.00,0000 0000 0000 A000 020008
2018-10-14 11:14:17,0.00,0.00,0.00,23.60,28.36,30.05,-0.04,0.63,1026.14,2020.99,3683.01,3061.66,3522.01,0.00,0.00,0.00,0000 0000 0000 A000 020008
2018-10-14 11:19:18,0.00,0.00,0.00,23.59,28.34,30.14,-0.04,0.69,1025.99,2021.00,3683.18,3061.96,3522.15,0.00,0.00,0.00,0000 0000 0000 A000 020008
2018-10-14 11:24:19,0.00,0.00,0.00,23.56,28.32,30.03,-0.05,0.72,1025.94,2021.02,3683.69,3061.99,3522.65,0.00,0.00,0.00,0000 0000 0000 A000 020008
2018-10-14 11:29:21,0.00,0.00,0.00,23.52,28.30,29.99,-0.05,0.72,1025.93,2021.05,3683.97,3061.99,3522.97,0.00,0.00,0.00,0000 0000 0000 A000 020008
2018-10-14 11:34:22,0.00,0.00,0.00,23.48,28.28,29.97,-0.04,0.69,1025.91,2021.11,3683.98,3062.01,3522.99,0.00,0.00,0.00,0000 0000 0000 A000 020008
2018-10-14 11:39:23,0.00,0.00,0.00,23.44,28.26,29.91,-0.05,0.62,1025.89,2021.44,3683.99,3062.06,3522.99,0.00,0.00,0.00,0000 0000 0000 A000 020008
2018-10-14 11:44:24,0.00,0.00,0.00,23.41,28.24,29.85,-0.04,0.55,1025.58,2021.84,3684.00,3062.25,3523.01,0.00,0.00,0.00,0000 0000 0000 A000 020008
2018-10-14 11:49:25,0.00,0.00,0.00,23.39,28.22,29.89,-0.04,0.64,1025.46,2021.94,3684.06,3062.79,3523.13,0.00,0.00,0.00,0000 0000 0000 A000 020008
2018-10-14 11:54:26,0.00,0.00,0.00,23.35,28.20,29.80,-0.05,0.61,1025.43,2021.98,3684.48,3062.96,3523.65,0.00,0.00,0.00,0000 0000 0000 A000 020008
2018-10-14 11:59:28,0.00,0.00,0.00,23.32,28.17,29.78,-0.05,0.63,1025.40,2021.99,3684.56,3062.99,3523.82,0.00,0.00,0.00,0000 0000 0000 A000 020008
2018-10-14 12:04:29,0.00,0.00,0.00,23.31,28.16,29.73,-0.05,0.66,1025.00,2021.99,3684.93,3062.99,3523.98,0.00,0.00,0.00,0000 0000 0000 A000 020008
2018-10-14 12:09:30,0.00,0.00,0.00,23.28,28.13,29.72,-0.05,0.64,1024.93,2021.99,3684.99,3063.00,3523.99,0.00,0.00,0.00,0000 0000 0000 A000 020008
2018-10-14 12:14:31,0.00,0.00,0.00,23.27,28.11,29.72,-0.04,0.79,1024.93,2021.99,3684.99,3063.08,3524.00,0.00,0.00,0.00,0000 0000 0000 A000 020008
2018-10-14 12:19:32,0.00,0.00,0.00,23.25,28.09,29.68,-0.04,0.73,1024.95,2021.99,3685.01,3063.29,3524.04,0.00,0.00,0.00,0000 0000 0000 A000 020008
2018-10-14 12:24:33,0.00,0.00,0.00,23.21,28.06,29.62,-0.05,0.62,1024.97,2022.03,3685.17,3063.86,3524.51,0.00,0.00,0.00,0000 0000 0000 A000 020008
2018-10-14 12:29:34,0.00,0.00,0.00,23.19,28.04,29.58,-0.05,0.72,1024.93,2022.07,3685.69,3063.98,3524.95,0.00,0.00,0.00,0000 0000 0000 A000 020008
2018-10-14 12:34:35,0.00,0.00,0.00,23.17,28.01,29.60,-0.05,0.72,1024.92,2022.26,3685.94,3063.99,3524.98,0.00,0.00,0.00,0000 0000 0000 A000 020008
2018-10-14 12:39:36,0.00,0.00,0.00,23.17,27.99,29.59,-0.04,0.61,1024.82,2022.36,3685.96,3063.99,3524.99,0.00,0.00,0.00,0000 0000 0000 A000 020008
2018-10-14 12:44:37,0.00,0.00,0.00,23.15,27.97,29.53,-0.05,0.69,1024.53,2022.76,3685.99,3064.00,3525.00,0.00,0.00,0.00,0000 0000 0000 A000 020008
2018-10-14 12:49:39,0.00,0.00,0.00,23.14,27.95,29.51,-0.05,0.63,1024.79,2022.95,3686.00,3064.06,3525.10,0.00,0.00,0.00,0000 0000 0000 A000 020008
2018-10-14 12:54:40,0.00,0.00,0.00,23.12,27.92,29.51,-0.04,0.79,1024.71,2022.98,3686.04,3064.38,3525.51,0.00,0.00,0.00,0000 0000 0000 A000 020008
2018-10-14 12:59:41,0.00,0.00,0.00,23.12,27.90,29.45,-0.05,0.82,1024.43,2022.99,3686.61,3064.93,3525.95,0.00,0.00,0.00,0000 0000 0000 A000 020008
2018-10-14 13:04:43,0.00,0.00,0.00,23.11,27.87,29.50,-0.05,0.88,1024.43,2022.99,3686.96,3064.99,3525.99,0.00,0.00,0.00,0000 0000 0000 A000 020008
2018-10-14 13:09:44,0.00,0.00,0.00,23.08,27.85,29.47,-0.05,0.97,1024.23,2023.00,3686.98,3064.99,3525.99,0.00,0.00,0.00,0000 0000 0000 A000 020008
2018-10-14 13:14:45,0.00,0.00,0.00,23.06,27.83,29.49,-0.04,0.94,1024.30,2023.05,3686.99,3065.01,3526.09,0.00,0.00,0.00,0000 0000 0000 A000 020008
2018-10-14 13:19:46,0.00,0.00,0.00,23.03,27.80,29.52,-0.05,0.91,1024.42,2023.08,3687.01,3065.05,3526.32,0.00,0.00,0.00,0000 0000 0000 A000 020008
2018-10-14 13:24:47,0.00,0.00,0.00,23.00,27.78,29.43,-0.04,0.93,1024.43,2023.36,3687.25,3065.48,3526.86,0.00,0.00,0.00,0000 0000 0000 A000 020008